Tracking 27097 objects as of 29-Mar-2023
HD Live streaming from Space Station
objects crossing your sky now

STARLINK-3397

Track STARLINK-3397 now!
10-day predictions
STARLINK-3397 is classified as:


NORAD ID: 51115
Int'l Code: 2022-005M
Perigee: 546.1 km
Apogee: 547.6 km
Inclination: 53.2 °
Period: 95.4 minutes
Semi major axis: 6917 km
RCS: Unknown
Launch date: January 19, 2022
Source: United States (US)
Launch site: AIR FORCE EASTERN TEST RANGE (AFETR)
Your satellite tracking list
Your tracking list is empty




NASA's NSSDC Master Catalog

Two Line Element Set (TLE):
1 51115U 22005M   23087.68332346 -.00001165  00000-0 -55120-4 0  9999
2 51115  53.2171  83.9908 0001131  97.3466 262.7655 15.08850216 66283
Source of the keplerian elements: AFSPC